Weather History for Fort Bragg, NC

Change the Weather History Date:

Monday, March 5, 2012

  Actual Average Record
Temperature  
Mean Temperature 46 °F -  
Max Temperature 57 °F 58 °F 80 °F (1997)
Min Temperature 35 °F 37 °F 23 °F (2002)
Degree Days  
Heating Degree Days 19    
Moisture  
Dew Point 22 °F    
Average Humidity 41    
Maximum Humidity 68    
Minimum Humidity 23    
Precipitation  
Precipitation 0.00 in - - ()
Sea Level Pressure  
Sea Level Pressure 30.17 in    
Wind  
Wind Speed 9 mph (West)    
Max Wind Speed 25 mph    
Max Gust Speed 36 mph    
Visibility 10 miles    
Events      
Averages and records for this station are not official NWS values.
T = Trace of Precipitation, MM = Missing Value Source: NWS Daily Summary

Daily Weather History Graph

Daily Weather History Graph

Search for Another Location

Airport:

Trip Planner

Search our weather history database for the weather conditions in past years. The results will help you decide how hot, cold, wet, or windy it might be!

Date:

Astronomy

Mar. 05, 2012 Rise Set
Actual Time 6:39 AM EST 6:15 PM EST
Civil Twilight 6:14 AM EST 6:40 PM EST
Nautical Twilight 5:44 AM EST 7:10 PM EST
Astronomical Twilight 5:15 AM EST 7:39 PM EST
Moon 3:36 PM EST (3/5) 4:31 AM EST (3/5)
Length of Visible Light 12h 26m
Length of Day
11h 35m
Waxing Gibbous, 91% of the Moon is Illuminated
Mar 5
Waxing Gibbous
Mar 8
Full
Mar 14
Last Quarter
Mar 22
New
Mar 30
First Quarter

Hourly Weather History & Observations

Time (EST) Temp. Windchill Dew Point Humidity Pressure Visibility Wind Dir Wind Speed Gust Speed Precip Events Conditions
12:55 AM 36.5 °F 33.9 °F 24.8 °F 63% 30.06 in 10.0 mi SSW 3.5 mph - N/A   Clear
1:55 AM 35.2 °F - 25.5 °F 68% 30.06 in 10.0 mi Calm Calm - N/A   Clear
2:55 AM 36.9 °F 33.1 °F 24.8 °F 62% 30.05 in 10.0 mi South 4.6 mph - N/A   Clear
3:55 AM 37.4 °F 33.8 °F 25.2 °F 61% 30.04 in 10.0 mi SSW 4.6 mph - N/A   Mostly Cloudy
4:55 AM 38.5 °F 32.7 °F 25.3 °F 59% 30.01 in 10.0 mi South 8.1 mph - N/A   Clear
5:55 AM 39.6 °F 34.7 °F 25.5 °F 57% 29.99 in 10.0 mi South 6.9 mph - N/A   Partly Cloudy
6:55 AM 42.3 °F 37.3 °F 26.1 °F 53% 29.97 in 10.0 mi SSW 8.1 mph - N/A   Scattered Clouds
7:55 AM 44.6 °F 38.8 °F 26.2 °F 49% 29.96 in 10.0 mi SSW 11.5 mph 19.6 mph N/A   Scattered Clouds
8:55 AM 48.7 °F - 27.7 °F 44% 29.97 in 10.0 mi SW 12.7 mph 23.0 mph N/A   Scattered Clouds
9:55 AM 54.3 °F - 28.6 °F 37% 29.98 in 10.0 mi WSW 21.9 mph 33.4 mph N/A   Clear
10:55 AM 55.2 °F - 28.4 °F 36% 30.03 in 10.0 mi WNW 25.3 mph 35.7 mph N/A   Scattered Clouds
11:55 AM 57.7 °F - 23.4 °F 27% 30.07 in 10.0 mi NW 21.9 mph 34.5 mph N/A   Scattered Clouds
12:55 PM 56.5 °F - 22.5 °F 27% 30.11 in 10.0 mi NW 17.3 mph 33.4 mph N/A   Clear
1:55 PM 55.8 °F - 20.3 °F 25% 30.14 in 10.0 mi NW 19.6 mph 33.4 mph N/A   Partly Cloudy
2:55 PM 56.1 °F - 18.3 °F 23% 30.17 in 10.0 mi WNW 23.0 mph 32.2 mph N/A   Partly Cloudy
3:55 PM 54.9 °F - 18.5 °F 24% 30.21 in 10.0 mi WNW 20.7 mph 29.9 mph N/A   Clear
4:55 PM 53.2 °F - 16.9 °F 24% 30.25 in 10.0 mi WNW 16.1 mph 29.9 mph N/A   Clear
5:55 PM 50.5 °F - 17.1 °F 27% 30.30 in 10.0 mi NW 16.1 mph - N/A   Clear
6:55 PM 46.4 °F 42.4 °F 18.7 °F 33% 30.35 in 10.0 mi NW 8.1 mph - N/A   Clear
7:55 PM 45.0 °F 41.2 °F 16.9 °F 32% 30.40 in 10.0 mi NNW 6.9 mph - N/A   Clear
8:55 PM 42.8 °F 38.0 °F 17.1 °F 36% 30.43 in 10.0 mi NNW 8.1 mph - N/A   Clear
9:55 PM 41.4 °F 36.2 °F 16.9 °F 37% 30.46 in 10.0 mi NNW 8.1 mph - N/A   Clear
10:55 PM 39.0 °F 34.8 °F 16.7 °F 40% 30.50 in 10.0 mi NNW 5.8 mph - N/A   Clear
11:55 PM 37.4 °F 32.8 °F 17.8 °F 45% 30.51 in 10.0 mi North 5.8 mph - N/A   Clear